Temp
15 15 15 15 16 15 15 15 15 14 14 13 13 13 12 13 12 12 12 12 12 12 12 12 12 12 13 13 13 12 12 12 12 12 11 11 11 11 11 10 10 10 10
15 14 14 14 15 15 15 15 15 14 14 14 14 13 13 12 12 12 12 12 12 12 12 12 12 12 12 12 12 13 12 11 12 11 9 12 11 11 10 10 10 10 10
15 15 14 13 14 14 15 15 15 15 14 14 13 13 12 11 11 11 11 11 11 11 12 12 12 12 11 12 12 12 12 11 10 11 11 11 12 9 10 9 10 9 9
16 15 14 13 13 14 14 16 15 15 14 14 13 14 13 11 12 12 11 11 11 11 11 11 11 11 11 11 11 11 11 11 10 9 9 9 9 10 11 9 9 9 9
17 16 15 14 14 14 15 15 15 15 14 14 13 14 13 13 12 12 11 11 10 10 10 10 10 10 10 10 10 10 10 10 9 9 8 8 7 7 8 10 9 8 7
16 16 15 15 14 14 14 14 15 15 14 13 13 13 13 12 12 11 10 10 10 10 9 9 9 9 9 9 9 9 9 9 8 8 8 7 7 7 7 7 7 6 6
14 14 14 13 13 12 12 12 13 14 14 13 13 13 13 13 12 11 11 10 9 9 9 9 9 9 9 8 8 8 8 8 8 7 7 6 6 6 4 4 5 5 5
12 13 13 13 12 12 14 14 13 13 14 13 12 12 12 12 12 12 11 10 10 9 9 8 8 8 8 8 8 8 7 7 7 7 6 6 5 5 4 3 3 4 4
10 11 12 13 12 11 11 12 12 11 13 12 12 12 12 11 11 10 10 9 9 9 8 8 8 7 7 7 7 7 7 6 6 6 6 5 5 4 3 3 2 2 3
9 9 10 10 11 10 10 10 11 12 12 11 11 12 11 11 10 10 9 9 8 8 7 7 7 7 7 7 6 6 6 6 5 5 4 4 4 3 2 2 1 1 1
8 8 8 8 9 9 10 10 10 12 11 10 11 10 10 9 9 9 8 8 7 7 7 7 7 6 6 6 6 6 5 5 4 4 3 3 2 2 2 1 1 0 -0
7 7 7 6 7 7 8 8 9 10 10 10 10 9 8 8 8 8 7 7 7 6 7 6 6 6 6 5 5 4 4 4 3 2 2 1 1 1 0 0 0 -0 -1
7 6 7 7 7 7 8 8 9 9 9 9 8 8 8 7 7 7 6 6 6 6 6 6 5 5 5 4 4 3 2 2 1 1 1 0 -0 -0 -0 -1 -1 -1 -1
7 6 6 6 6 6 7 7 7 8 8 8 8 7 7 7 6 6 6 6 6 5 5 5 5 4 3 3 2 2 1 1 1 0 -0 -0 -1 -1 -1 -2 -1 -1 -1
6 6 5 5 4 5 6 7 7 7 7 7 7 6 6 6 5 5 5 5 5 5 4 4 3 3 2 2 1 0 0 -0 -0 -1 -1 -1 -1 -2 -2 -1 -1 -2 -2
6 5 4 4 4 4 5 5 6 6 7 6 5 5 5 5 5 5 4 4 4 4 3 3 2 2 1 1 0 -0 -0 -1 -1 -1 -1 -2 -2 -2 -2 -2 -2 -2 -1
6 5 5 4 4 4 5 4 5 5 5 5 4 4 4 4 4 4 4 4 3 3 2 2 2 1 0 -0 -1 -1 -1 -1 -1 -2 -2 -2 -2 -2 -2 -2 -2 -2 -2
5 5 4 3 3 4 4 4 4 4 5 4 4 4 4 4 3 3 3 3 2 2 1 1 0 -0 -1 -1 -1 -2 -2 -2 -2 -2 -2 -2 -2 -2 -2 -3 -2 -2 -2
6 5 4 4 4 4 4 5 4 4 3 3 3 4 4 3 3 3 2 2 2 1 0 -0 -1 -1 -1 -1 -2 -2 -2 -3 -3 -3 -3 -2 -2 -2 -2 -2 -2 -2 -2
5 4 4 4 3 3 3 3 2 2 2 3 3 3 3 3 3 2 2 1 1 -0 -1 -1 -1 -2 -2 -2 -2 -3 -3 -3 -3 -3 -3 -2 -3 -2 -2 -2 -2 -2 -2
4 4 3 3 3 3 3 2 2 2 3 3 3 3 2 2 2 1 1 0 -1 -1 -1 -2 -2 -3 -3 -3 -3 -3 -3 -3 -3 -3 -3 -3 -3 -3 -2 -2 -2 -2 -2
3 3 3 3 3 3 3 2 2 3 3 3 2 2 2 1 1 0 -0 -1 -1 -2 -3 -3 -3 -3 -3 -3 -4 -4 -3 -3 -3 -3 -3 -3 -3 -3 -3 -2 -3 -3 -3
3 3 3 1 2 3 3 2 2 2 2 2 1 1 1 0 -0 -0 -1 -2 -3 -3 -3 -4 -4 -4 -4 -4 -4 -4 -4 -4 -4 -4 -3 -3 -3 -3 -4 -4 -4 -4 -5
2 2 1 1 0 2 3 4 2 2 2 1 1 0 -0 -1 -1 -1 -2 -3 -3 -3 -4 -4 -5 -4 -5 -5 -4 -4 -4 -4 -4 -3 -4 -4 -4 -4 -5 -5 -5 -6 -6
1 2 2 1 0 2 2 2 2 2 1 1 0 -1 -1 -1 -2 -2 -2 -3 -3 -4 -4 -5 -4 -5 -5 -5 -5 -4 -4 -4 -4 -3 -4 -5 -5 -5 -5 -6 -6 -6 -6
1 1 1 0 -0 1 1 1 1 2 2 1 -1 -1 -2 -2 -3 -3 -3 -4 -4 -5 -5 -5 -5 -5 -5 -4 -4 -4 -4 -4 -4 -4 -6 -6 -6 -6 -6 -6 -6 -6 -6
Height
791 797 801 805 808 813 817 821 824 828 830 833 835 838 840 841 845 847 850 852 853 855 856 856 858 858 858 858 859 859 860 859 859 860 862 863 864 864 864 865 865 866 866
793 795 799 803 805 807 813 818 821 825 828 831 834 836 838 841 842 844 848 851 852 854 856 856 858 858 859 859 859 859 859 860 860 860 861 863 865 864 864 864 864 865 865
788 789 794 797 801 803 806 813 818 821 825 829 832 836 837 840 841 843 846 850 851 854 855 856 857 858 859 859 859 859 859 860 862 861 862 863 862 865 863 863 863 863 864
775 781 785 790 794 798 803 805 813 818 821 826 829 831 832 834 836 840 845 848 850 853 854 855 856 857 859 859 859 860 860 860 862 863 863 863 864 864 862 863 862 862 862
765 772 774 778 785 791 797 803 806 813 818 822 827 830 830 833 836 836 842 846 848 852 854 856 855 856 858 859 859 860 860 860 862 862 864 864 864 865 866 862 861 860 858
760 760 765 772 781 787 792 798 800 807 815 820 825 830 830 831 832 837 840 843 846 849 854 856 856 856 857 859 859 859 860 860 861 863 863 864 864 865 865 865 861 860 856
760 762 763 765 773 782 786 793 798 802 810 816 821 824 828 830 830 833 837 841 843 847 852 856 856 855 856 858 859 859 859 860 862 863 863 863 863 864 864 864 861 859 855
759 757 756 762 765 771 773 779 779 787 803 811 817 820 824 827 830 832 837 840 842 845 850 856 856 854 855 858 858 859 860 861 861 862 862 862 862 862 861 861 860 856 854
761 759 760 760 765 767 765 772 780 789 797 808 813 815 821 825 828 832 836 838 841 845 849 854 855 854 855 858 858 859 859 860 860 861 861 861 861 860 859 858 858 858 852
762 759 757 757 759 762 766 775 777 784 796 807 809 811 818 823 827 831 834 837 841 844 847 852 854 854 855 857 857 858 859 859 859 860 860 859 859 858 856 856 855 854 853
764 760 758 759 760 763 769 773 777 783 797 804 806 811 818 822 826 830 833 836 840 844 847 850 852 852 854 856 857 857 857 858 858 858 857 857 856 855 854 853 852 850 849
766 763 762 763 764 766 772 775 777 787 795 800 806 812 817 822 826 830 833 837 840 844 847 849 850 852 854 855 855 855 855 855 855 855 855 854 853 852 851 849 848 846 844
766 766 765 765 767 769 772 777 781 787 794 800 807 813 817 821 825 830 834 838 841 844 847 849 850 851 853 853 853 853 853 853 853 852 852 851 849 848 847 846 844 843 841
766 767 769 768 769 771 774 779 784 789 795 801 807 813 818 821 826 831 835 838 841 844 846 848 849 850 851 851 851 851 851 850 850 849 849 848 847 845 843 842 840 838 836
765 767 769 770 771 774 777 781 785 790 795 802 808 814 818 823 827 832 836 838 841 843 846 847 848 849 849 849 849 849 848 847 847 846 846 845 844 842 841 839 837 835 832
760 763 767 770 771 773 777 782 786 791 797 803 808 814 819 823 828 832 835 838 841 843 845 846 847 847 847 847 846 846 846 845 844 843 841 840 838 836 835 833 831 829 826
757 760 762 765 769 772 775 780 786 792 797 803 809 814 819 824 828 831 834 837 840 842 843 844 844 844 844 844 843 843 842 841 841 840 838 836 834 832 829 827 824 822 820
753 757 760 764 768 773 777 782 787 793 798 803 809 814 819 823 827 831 834 837 839 840 841 841 842 842 841 841 840 839 839 838 836 835 834 831 828 826 824 821 818 816 814
747 751 756 762 766 771 776 781 787 792 797 803 809 814 819 823 827 830 833 835 836 837 838 839 839 838 837 837 836 836 835 833 831 829 828 825 822 820 818 815 811 808 805
745 750 755 760 765 771 776 781 787 793 798 803 809 814 819 822 825 829 831 832 834 835 836 836 835 835 834 833 833 832 830 827 825 823 821 820 818 815 813 811 807 801 799
744 747 753 757 763 769 775 781 787 792 798 804 809 814 818 821 824 826 828 830 831 832 832 832 832 832 831 830 829 828 825 823 820 819 817 815 812 809 807 804 800 795 793
744 747 751 757 762 768 774 780 787 792 799 804 809 813 817 819 822 824 826 827 828 829 830 830 829 829 827 826 824 823 821 819 817 815 813 810 806 803 800 798 796 792 789
742 746 750 756 763 768 773 779 786 792 798 804 808 812 815 818 820 822 824 825 826 826 826 825 824 823 823 821 820 818 817 815 813 811 808 805 802 798 795 793 790 786 783
740 744 750 756 762 768 773 778 785 792 797 802 807 811 814 816 818 820 821 822 823 823 822 822 821 820 819 818 816 814 812 810 808 805 802 799 796 793 790 786 783 780 777
739 743 748 753 760 767 773 779 785 791 797 802 806 810 812 814 816 817 819 819 820 820 820 820 819 817 816 814 813 811 809 807 804 800 796 792 790 787 784 781 778 775 773
738 742 747 753 760 766 773 780 786 791 796 801 805 807 810 811 813 815 816 817 817 818 818 817 816 814 812 810 809 807 805 802 799 794 791 788 786 783 780 777 774 772 769
Wind_Speed
6 15 22 25 26 26 26 26 25 24 24 24 23 20 19 17 13 11 9 7 8 7 7 7 8 8 8 9 8 9 9 13 7 5 5 4 3 2 0 3 6 7 10
9 12 19 25 28 30 29 29 28 27 26 26 24 21 20 17 16 13 11 9 8 8 7 7 7 7 8 8 8 6 6 10 10 3 3 1 2 1 2 5 6 5 7
14 13 19 24 29 31 34 32 30 29 28 26 23 18 18 18 16 15 13 11 9 8 8 8 7 7 7 8 9 8 7 6 9 9 3 1 1 3 1 3 5 2 7
13 11 19 21 27 30 34 35 33 30 29 27 25 25 26 21 18 18 15 13 11 9 9 9 8 8 7 8 8 8 8 7 6 5 7 5 2 0 1 1 3 5 13
12 14 18 23 28 31 35 37 34 32 30 29 27 26 22 17 18 19 18 15 13 10 9 8 9 8 8 8 7 7 7 6 6 5 3 3 4 3 0 3 4 13 10
10 12 20 25 25 31 34 36 36 33 32 30 27 25 21 19 20 20 20 18 15 13 10 9 9 9 8 7 7 6 6 6 6 5 4 3 1 1 2 4 6 10 11
5 8 14 17 22 25 30 32 32 34 33 32 29 25 21 18 19 21 21 20 18 15 12 10 10 9 8 7 6 6 6 6 5 4 3 2 0 3 3 4 6 5 9
7 6 8 19 26 35 41 41 43 41 38 34 30 24 20 18 17 18 20 18 16 16 14 11 10 9 8 7 6 6 5 4 3 2 1 1 2 4 5 3 4 6 7
6 8 9 21 25 26 32 38 35 32 36 33 28 22 18 17 18 19 18 17 16 17 15 12 11 10 8 7 7 6 4 2 0 2 4 4 5 7 7 6 6 4 5
6 4 4 9 13 19 24 27 32 36 35 31 25 21 19 19 19 19 20 19 19 18 16 14 11 10 9 7 5 3 1 1 3 5 6 8 8 9 9 9 10 9 10
3 3 1 5 13 18 24 28 31 34 31 27 23 22 21 21 21 22 22 21 20 18 16 14 12 9 7 4 2 1 3 5 6 7 9 10 10 11 11 12 12 12 10
2 2 4 8 11 17 21 23 30 32 30 26 25 25 25 24 24 23 22 21 20 17 15 13 10 7 4 1 1 3 5 7 8 9 9 10 10 12 13 13 14 14 14
2 3 5 8 12 16 22 25 28 30 28 27 28 27 26 26 25 24 22 20 19 16 13 9 6 4 1 2 4 6 6 7 8 9 10 11 12 13 13 13 14 14 14
4 3 4 6 10 16 22 25 26 28 29 29 29 29 28 27 25 24 21 19 16 13 10 7 3 1 2 4 5 6 6 8 8 9 11 12 13 13 14 14 14 13 15
7 6 6 6 13 18 21 24 27 29 30 31 31 30 28 26 25 22 19 16 13 10 7 3 1 2 4 5 6 6 8 9 11 12 13 14 13 14 13 14 13 15 17
8 8 7 8 12 19 23 26 29 30 31 33 32 31 28 26 23 20 17 13 10 7 4 1 2 4 5 5 6 6 9 11 13 15 16 16 15 15 14 15 15 16 18
10 10 11 13 17 23 28 28 30 32 33 33 32 30 27 24 21 17 14 11 8 6 2 1 3 5 6 7 8 8 10 13 15 16 16 17 17 17 19 19 18 18 17
10 10 11 14 20 23 24 29 31 32 33 33 32 29 26 23 19 15 12 9 6 3 2 2 4 7 8 10 10 10 12 15 17 17 18 18 20 19 19 18 20 20 22
9 15 21 24 26 28 30 33 32 33 33 32 30 27 23 21 17 13 10 6 4 1 2 3 6 9 11 11 11 12 14 17 18 18 18 19 20 21 19 21 23 24 24
16 17 22 24 26 28 32 31 28 29 29 31 28 24 20 17 14 11 8 5 2 1 3 6 8 10 11 12 11 11 14 16 17 17 21 19 19 20 21 23 24 25 23
15 23 25 26 28 33 33 27 27 25 31 29 25 21 17 14 11 8 5 3 2 3 5 8 9 8 10 12 12 13 14 16 18 18 18 18 20 22 22 23 26 17 22
15 21 22 22 28 32 31 27 25 31 29 27 23 19 15 12 9 6 4 2 3 5 7 8 10 11 12 13 14 15 16 17 19 18 19 22 22 22 21 19 19 24 27
15 20 22 24 27 31 32 28 31 31 28 24 20 16 12 9 7 5 2 2 3 5 8 10 12 15 16 16 17 17 16 16 18 22 21 23 23 20 17 22 23 23 18
15 20 22 22 22 30 31 34 33 30 27 22 18 14 12 9 6 3 2 2 4 7 9 11 11 17 18 18 19 16 19 21 23 23 22 22 17 18 20 21 17 15 15
17 21 22 23 23 29 30 33 32 28 23 18 15 13 10 7 5 3 2 4 6 8 10 13 16 15 16 16 16 17 19 21 21 23 20 11 15 18 17 16 16 15 16
18 19 20 25 26 30 31 31 29 23 18 17 15 12 10 6 4 3 4 5 6 8 10 12 15 18 19 18 18 17 20 21 22 17 12 16 18 18 17 17 18 17 19
Wind_Direction
181 193 202 204 197 195 194 192 188 187 182 175 171 170 169 162 161 157 156 152 149 146 139 131 122 115 110 101 113 100 81 67 103 128 111 131 159 154 251 172 134 107 59
193 186 199 202 199 194 197 196 195 191 191 189 183 181 173 171 166 162 161 161 158 155 150 138 133 121 108 102 97 113 99 68 59 92 100 95 127 146 79 139 151 132 41
205 188 190 194 200 197 196 199 199 196 195 193 187 182 169 169 164 167 164 164 159 158 153 144 136 128 116 106 94 91 99 108 66 63 90 138 197 316 158 167 160 159 350
188 190 185 187 200 201 201 197 200 200 197 197 194 188 182 172 183 175 169 165 160 161 155 149 140 129 117 107 98 89 91 97 108 82 67 84 99 281 292 196 219 285 327
183 188 190 194 200 200 205 203 196 201 201 201 202 199 189 187 175 169 169 167 160 159 156 151 140 131 121 112 104 99 96 99 99 99 106 84 82 102 310 286 297 311 312
193 182 183 184 194 199 198 201 195 199 206 203 204 208 194 182 168 170 170 168 163 158 156 151 144 134 126 120 116 110 105 99 99 96 96 111 153 199 237 262 291 303 311
219 185 178 174 179 185 184 194 194 194 204 204 204 202 202 191 181 178 177 171 164 158 156 156 149 139 135 133 125 122 113 106 106 104 104 99 224 259 258 261 285 285 302
291 255 194 182 179 189 194 197 192 192 199 199 200 197 195 190 187 184 180 173 166 159 158 162 156 147 141 141 137 130 118 112 110 91 53 276 273 278 285 272 287 300 288
276 253 202 192 191 190 183 187 181 185 189 193 189 181 185 189 182 172 171 165 161 160 159 163 158 146 141 141 134 128 123 125 68 286 296 299 297 299 300 289 287 284 305
288 268 217 188 180 173 173 179 175 179 183 185 179 172 177 175 171 166 162 160 155 157 157 156 150 142 140 140 141 143 145 307 304 299 301 299 299 301 303 297 299 284 277
279 270 243 172 160 165 167 168 170 171 173 174 165 166 166 164 160 157 154 153 152 153 153 152 149 145 146 148 163 251 295 303 303 303 301 304 305 306 307 307 303 296 285
355 128 145 143 140 144 152 150 156 161 165 161 159 159 156 154 153 151 150 152 151 150 152 151 149 146 151 176 292 303 306 308 310 314 314 315 315 311 310 306 300 296 296
78 78 110 121 128 134 140 147 154 157 157 156 156 153 153 153 150 149 150 151 149 148 147 148 145 141 147 320 317 317 314 312 312 311 312 314 313 310 309 307 302 301 300
164 141 116 110 119 136 144 148 149 154 155 155 155 154 153 152 150 148 147 146 147 146 144 142 136 83 336 328 323 320 312 307 306 308 310 312 310 308 310 306 300 300 301
185 184 168 153 145 145 149 152 154 157 158 157 155 153 151 148 146 147 147 144 143 142 140 132 79 333 330 327 321 313 307 306 306 308 307 309 307 305 299 298 299 300 298
198 184 170 167 164 158 156 158 159 161 162 158 155 151 148 148 148 147 143 142 141 142 145 159 313 320 318 314 312 306 302 300 303 307 306 305 303 304 298 292 290 289 293
198 185 183 178 173 170 166 161 161 162 161 156 151 151 151 149 148 146 146 147 151 160 174 271 299 311 319 321 313 305 298 298 301 301 301 300 300 303 303 301 300 300 292
189 188 178 171 173 170 165 162 160 160 157 154 155 155 154 151 150 150 152 154 157 178 238 295 315 318 319 316 311 309 296 292 295 296 298 298 301 303 305 301 298 295 295
194 183 179 174 175 172 169 163 160 159 156 155 156 157 156 152 153 153 156 163 176 214 292 309 316 318 322 320 313 306 297 296 296 299 301 303 302 303 299 292 290 289 287
174 169 174 173 167 169 164 155 153 154 155 159 159 158 158 157 158 160 164 167 192 247 297 312 318 318 316 317 311 307 301 300 306 306 309 309 302 299 296 293 290 288 293
171 171 168 167 169 167 162 153 155 157 162 160 155 155 156 157 159 158 165 182 207 295 315 316 314 314 320 319 315 312 310 307 305 302 302 300 304 297 295 291 290 293 307
162 166 159 160 165 165 162 155 157 164 160 158 156 156 157 157 157 162 163 190 290 304 310 312 316 323 328 325 321 314 308 303 300 299 299 305 307 297 300 305 304 306 306
163 167 160 153 163 167 170 155 161 160 159 157 155 155 156 159 161 168 187 239 281 305 318 318 318 323 326 323 323 315 309 302 298 297 299 302 303 304 304 303 302 303 298
166 161 153 154 156 171 171 168 162 162 159 157 156 162 168 165 168 182 215 270 299 310 312 312 310 315 315 312 317 313 318 313 304 300 303 301 297 304 305 306 307 305 302
164 163 161 156 153 165 167 164 162 161 157 156 166 172 172 174 179 207 256 291 302 304 306 307 305 299 299 300 296 299 309 305 299 303 301 305 313 312 309 309 309 309 306
158 154 150 146 147 156 157 160 159 159 161 171 178 181 179 179 197 234 277 288 297 291 287 292 293 295 292 296 297 298 307 307 305 306 317 317 313 308 308 309 308 305 300